TimeEST,TemperatureF,Dew PointF,Humidity,Sea Level PressureIn,VisibilityMPH,Wind Direction,Wind SpeedMPH,Gust SpeedMPH,PrecipitationIn,Events,Conditions,WindDirDegrees,DateUTC
12:15 AM,19.4,15.8,86,30.42,10.0,SW,6.9,-,N/A,,Clear,220,2013-11-25 05:15:00
12:35 AM,19.4,14.0,80,30.42,10.0,SW,9.2,-,N/A,,Clear,230,2013-11-25 05:35:00
12:55 AM,21.2,14.0,74,30.40,10.0,SW,11.5,-,N/A,,Clear,220,2013-11-25 05:55:00
1:16 AM,21.2,14.0,74,30.40,10.0,SW,8.1,-,N/A,,Clear,230,2013-11-25 06:16:00
1:36 AM,21.2,14.0,74,30.40,10.0,SW,9.2,-,N/A,,Clear,220,2013-11-25 06:36:00
1:56 AM,21.2,12.2,68,30.40,10.0,SW,10.4,-,N/A,,Clear,230,2013-11-25 06:56:00
2:16 AM,21.2,12.2,68,30.40,10.0,SW,11.5,-,N/A,,Clear,220,2013-11-25 07:16:00
2:36 AM,19.4,12.2,74,30.39,10.0,SW,9.2,-,N/A,,Clear,220,2013-11-25 07:36:00
2:56 AM,19.4,12.2,74,30.39,10.0,SW,9.2,-,N/A,,Clear,220,2013-11-25 07:56:00
3:16 AM,19.4,12.2,74,30.38,10.0,SW,8.1,-,N/A,,Clear,220,2013-11-25 08:16:00
3:36 AM,19.4,12.2,74,30.37,10.0,SW,8.1,-,N/A,,Clear,220,2013-11-25 08:36:00
3:56 AM,19.4,12.2,74,30.36,10.0,SW,8.1,-,N/A,,Clear,220,2013-11-25 08:56:00
4:16 AM,19.4,10.4,68,30.36,10.0,SW,10.4,-,N/A,,Clear,220,2013-11-25 09:16:00
4:36 AM,21.2,10.4,63,30.35,10.0,SW,10.4,-,N/A,,Clear,220,2013-11-25 09:36:00
4:56 AM,21.2,10.4,63,30.35,10.0,SW,10.4,-,N/A,,Clear,230,2013-11-25 09:56:00
5:16 AM,21.2,12.2,68,30.34,10.0,SSW,9.2,-,N/A,,Clear,210,2013-11-25 10:16:00
5:36 AM,21.2,12.2,68,30.33,10.0,SSW,9.2,-,N/A,,Clear,210,2013-11-25 10:36:00
5:57 AM,21.2,12.2,68,30.33,10.0,SW,11.5,17.3,N/A,,Clear,220,2013-11-25 10:57:00
6:17 AM,21.2,12.2,68,30.31,10.0,SSW,9.2,-,N/A,,Clear,210,2013-11-25 11:17:00
6:32 AM,21.2,12.2,68,30.31,10.0,SSW,11.5,-,N/A,,Clear,210,2013-11-25 11:32:00
6:52 AM,21.2,12.2,68,30.30,10.0,SSW,11.5,-,N/A,,Clear,210,2013-11-25 11:52:00
7:12 AM,21.2,12.2,68,30.30,10.0,SSW,13.8,18.4,N/A,,Clear,210,2013-11-25 12:12:00
7:32 AM,21.2,14.0,74,30.30,10.0,SW,12.7,-,N/A,,Clear,220,2013-11-25 12:32:00
7:52 AM,21.2,14.0,74,30.29,10.0,SSW,12.7,18.4,N/A,,Clear,210,2013-11-25 12:52:00
8:12 AM,23.0,14.0,68,30.28,10.0,SSW,9.2,-,N/A,,Clear,200,2013-11-25 13:12:00
8:32 AM,23.0,14.0,68,30.28,10.0,SSW,10.4,-,N/A,,Clear,200,2013-11-25 13:32:00
8:53 AM,24.8,14.0,64,30.28,10.0,SSW,12.7,16.1,N/A,,Clear,200,2013-11-25 13:53:00
9:13 AM,24.8,14.0,64,30.28,10.0,SSW,10.4,-,N/A,,Clear,210,2013-11-25 14:13:00
9:33 AM,24.8,14.0,64,30.26,10.0,SSW,13.8,18.4,N/A,,Clear,210,2013-11-25 14:33:00
9:53 AM,24.8,14.0,64,30.26,10.0,SSW,16.1,21.9,N/A,,Clear,210,2013-11-25 14:53:00
10:13 AM,26.6,15.8,64,30.24,10.0,SSW,10.4,-,N/A,,Clear,210,2013-11-25 15:13:00
10:33 AM,28.4,15.8,59,30.24,10.0,SSW,11.5,-,N/A,,Clear,210,2013-11-25 15:33:00
10:53 AM,28.4,14.0,55,30.23,10.0,SW,12.7,17.3,N/A,,Clear,220,2013-11-25 15:53:00
11:13 AM,28.4,12.2,51,30.22,10.0,SW,12.7,21.9,N/A,,Clear,220,2013-11-25 16:13:00
11:33 AM,28.4,12.2,51,30.21,10.0,SW,11.5,-,N/A,,Clear,220,2013-11-25 16:33:00
11:54 AM,28.4,12.2,51,30.20,10.0,SW,16.1,25.3,N/A,,Clear,230,2013-11-25 16:54:00
12:14 PM,30.2,12.2,47,30.18,10.0,SW,16.1,19.6,N/A,,Clear,220,2013-11-25 17:14:00
12:34 PM,30.2,12.2,47,30.17,10.0,SW,17.3,24.2,N/A,,Clear,220,2013-11-25 17:34:00
12:54 PM,30.2,12.2,47,30.16,10.0,SW,16.1,19.6,N/A,,Scattered Clouds,220,2013-11-25 17:54:00
1:14 PM,30.2,14.0,51,30.16,10.0,SW,12.7,17.3,N/A,,Mostly Cloudy,220,2013-11-25 18:14:00
1:34 PM,30.2,14.0,51,30.14,10.0,SSW,17.3,20.7,N/A,,Overcast,210,2013-11-25 18:34:00
1:54 PM,32.0,14.0,48,30.14,10.0,WSW,13.8,20.7,N/A,,Mostly Cloudy,240,2013-11-25 18:54:00
2:14 PM,30.2,14.0,51,30.14,10.0,SW,16.1,23.0,N/A,,Mostly Cloudy,230,2013-11-25 19:14:00
2:34 PM,30.2,14.0,51,30.14,10.0,SW,15.0,21.9,N/A,,Overcast,220,2013-11-25 19:34:00
2:54 PM,30.2,12.2,47,30.12,10.0,SSW,15.0,20.7,N/A,,Overcast,210,2013-11-25 19:54:00
3:14 PM,30.2,14.0,51,30.11,10.0,SW,11.5,19.6,N/A,,Overcast,220,2013-11-25 20:14:00
3:34 PM,30.2,12.2,47,30.11,10.0,SSW,13.8,20.7,N/A,,Overcast,210,2013-11-25 20:34:00
3:55 PM,32.0,12.2,44,30.12,10.0,SW,16.1,23.0,N/A,,Overcast,220,2013-11-25 20:55:00
4:15 PM,32.0,12.2,44,30.11,10.0,SSW,15.0,20.7,N/A,,Mostly Cloudy,210,2013-11-25 21:15:00
4:35 PM,32.0,12.2,44,30.10,10.0,SSW,11.5,19.6,N/A,,Overcast,210,2013-11-25 21:35:00
4:55 PM,32.0,12.2,44,30.10,10.0,SSW,12.7,24.2,N/A,,Overcast,210,2013-11-25 21:55:00
5:15 PM,32.0,12.2,44,30.09,10.0,SSW,15.0,20.7,N/A,Snow,Light Snow,210,2013-11-25 22:15:00
5:35 PM,30.2,12.2,47,30.09,10.0,SW,11.5,17.3,N/A,,Overcast,220,2013-11-25 22:35:00
5:55 PM,32.0,14.0,48,30.10,10.0,SW,15.0,-,N/A,,Overcast,220,2013-11-25 22:55:00
6:15 PM,32.0,15.8,51,30.10,10.0,SW,12.7,20.7,N/A,,Overcast,230,2013-11-25 23:15:00
6:35 PM,32.0,15.8,51,30.10,10.0,SW,17.3,23.0,N/A,,Overcast,220,2013-11-25 23:35:00
6:55 PM,32.0,15.8,51,30.10,10.0,SW,16.1,-,N/A,,Overcast,220,2013-11-25 23:55:00
7:16 PM,30.2,19.4,64,30.11,10.0,SW,17.3,21.9,N/A,,Overcast,230,2013-11-26 00:16:00
7:36 PM,30.2,21.2,69,30.12,7.0,WSW,13.8,-,N/A,Snow,Light Snow,240,2013-11-26 00:36:00
7:56 PM,28.4,24.8,86,30.12,5.0,WSW,11.5,20.7,N/A,Snow,Light Snow,240,2013-11-26 00:56:00
8:16 PM,28.4,23.0,80,30.11,7.0,SW,13.8,19.6,N/A,Snow,Light Snow,230,2013-11-26 01:16:00
8:36 PM,28.4,23.0,80,30.11,10.0,WSW,12.7,20.7,N/A,Snow,Light Snow,240,2013-11-26 01:36:00
8:56 PM,30.2,23.0,75,30.12,10.0,WSW,12.7,-,N/A,Snow,Light Snow,240,2013-11-26 01:56:00
9:16 PM,30.2,21.2,69,30.12,10.0,WSW,11.5,-,N/A,,Overcast,240,2013-11-26 02:16:00
9:36 PM,30.2,21.2,69,30.11,10.0,WSW,8.1,-,N/A,,Overcast,240,2013-11-26 02:36:00
9:52 PM,30.2,21.2,69,30.11,10.0,WSW,10.4,17.3,N/A,,Overcast,240,2013-11-26 02:52:00
10:12 PM,30.2,19.4,64,30.11,10.0,SW,13.8,19.6,N/A,,Overcast,230,2013-11-26 03:12:00
10:32 PM,30.2,19.4,64,30.12,10.0,SW,15.0,20.7,N/A,,Overcast,230,2013-11-26 03:32:00
10:52 PM,30.2,21.2,69,30.12,10.0,WSW,10.4,-,N/A,,Overcast,240,2013-11-26 03:52:00
11:12 PM,30.2,21.2,69,30.11,10.0,WSW,9.2,-,N/A,,Overcast,240,2013-11-26 04:12:00
11:32 PM,30.2,21.2,69,30.11,10.0,WSW,10.4,-,N/A,,Overcast,240,2013-11-26 04:32:00
11:52 PM,30.2,21.2,69,30.11,10.0,WSW,10.4,-,N/A,,Overcast,240,2013-11-26 04:52:00